View from above orbital plane
|
View from above satellite
|
Ground track
|
The orbit data is extracted from the following two-line orbital elements,
1 40057U 14034E 19342.14221188 .00000269 00000-0 45114-4 0 9990
2 40057 98.2559 109.1756 0011729 46.5951 313.6231 14.77761426293238
Epoch (UTC): | 08 December 2019 03:24:47 |
Eccentricity: | 0.0011729 |
inclination: | 98.2559° |
perigee height: | 628 km |
apogee height: | 644 km |
right ascension of ascending node: | 109.1756° |
argument of perigee: | 46.5951° |
revolutions per day: | 14.77761426 |
mean anomaly at epoch: | 313.6231° |
orbit number at epoch: | 29323 |
The dashed part of the orbit path shows where the satellite is in the earth's shadow,
|
|